{"data":{"norad_id":57926,"epoch":"2026-05-25T00:31:35.923584Z","epoch_age_seconds":83446,"freshness":"FRESH","line1":"1 57926U 23147P   26145.02194356 -.00002149  00000+0 -68601-4 0  9996","line2":"2 57926  42.9996 257.3978 0001013 272.4266  87.6470 15.27579408148233","mean_motion":15.27579408,"eccentricity":0.0001013,"inclination_deg":42.9996,"raan_deg":257.3978,"arg_perigee_deg":272.4266,"mean_anomaly_deg":87.647,"bstar":-6.8601e-5,"rev_number":14823,"period_min":94.266785245903,"perigee_km":482.3558303701,"apogee_km":483.7459070323,"semimajor_km":6861.1878687012,"source":"CELESTRAK","updated_at":"2026-05-25T13:38:18.458677Z"}}